Location: Unspecified
(51.5147°N, 7.4673°E)
Time: 04:01:57
(UTC+01:00)

Vanguard 1 Rocket - Pass Details

Date: 24 February 2026
Orbit: 653 x 4214 km, 34.3° (Epoch: 5 March)

Event Time Altitude Azimuth Distance (km) Brightness Sun altitude
Rises 17:43:01 0° 265° (W) 5,360 13.5 1.9°
Reaches altitude 10° 17:46:51 10° 253° (WSW) 4,834 13.7 1.3°
Maximum altitude 17:57:57 26° 204° (SSW) 4,790 11.6 -0.3°
Drops below altitude 10° 18:14:08 10° 159° (SSE) 7,120 11.9 -2.8°
Sets 18:21:50 0° 149° (SSE) 8,395 12.1 -3.9°
